COSMOS 1275 DEB, 12696

Orbit data source: Space-Track

COSMOS 1275 DEB, 12696 is space debris in LEO originally from a launch on Thu, 04 Jun 1981 UTC launched from the Plesetsk Missile And Space Complex (PKMTR). Debris objects in space refer to the collection of defunct objects orbiting the Earth. Examples of debris include non-operational satellites, rocket bodies, and fragments generated from explosions, collisions, or faulty payload assembly.

Loading next visibility...
Identifier
12696, 1981-053AQ
Orbit
LEO
Country
Flag of CISCIS
Related business
Manufacturer
Unknown
Mission
Spacecraft
Bus & Motor
Unknown
Mass
Unknown
Launch date (UTC)
1981-06-04 (45 years ago)
Launch vehicle
Unknown
Launch site
Plesetsk Missile And Space Complex (PKMTR)
Object type
Payload
Rocket body
Debris
Shape & HBR
Unknown shape, 0.2 m
Radar Cross Section
Small (<0.1 m²)

Expand to show TLE details & history
Last TLE update: 13 hours ago

TLE from 13 hours ago
0 COSMOS 1275 DEB
1 12696U 81053AQ  26119.59068490  .00000398  00000-0  53596-3 0  9992
2 12696  83.0697 301.4669 0146815 348.6751  75.4635 13.53291842201097
Epoch: 2026-04-29T14:10Z
TLE epoch observation values (Epoch: 2026-04-29T14:10:35.175Z)
Latitude
64.9452°
Longitude
-113.73775°
Altitude
1,045.475 km
Speed
7.348 km/s
True Right ascension
21h 05m 49s
True Declination
64° 49' 05"
Sunlit
Object was in daylight at epoch
Visualization orbit readout
Latitude
Unknown
Longitude
Unknown
Altitude
Unknown
Speed
Unknown
Apparent Right ascension
Unknown
Apparent Declination
Unknown
Sunlit
N/A
Visualization observer readout
Local Sidereal Time
10:28:28
Azimuth
Unknown
Elevation
Unknown
Doppler factor
Unknown
Orbital elements
Apogee altitude
1,166.509 km
Perigee altitude
948.181 km
Semi-major axis
7,435.482 km
Eccentricity
0.01468
Inclination
83.0697°
RAAN
301.4669°
Arg. of periapsis
348.6751°
True anomaly
77.09933°
Mean anomaly
75.4635°
Eccentric anomaly
76.28069°
Mean motion
3.38516 °/min
Orbital period
106.35 mins
BSTAR
0.00053596
Loading maneuver chart data...
Computing Atmospheric mass density...
Loading historical data...
Loading historical data...
Loading historical data...
Loading historical data...
Loading historical data...
Loading historical data...
Loading historical data...

Documentation

Showing up to 5 results
|